| time (UTC) | temp F | wind direction | speed knots | gust knots | rain 1hr in | rain 24hr in | rain mn in | humidity % | barometer mb |
| 20260504044609 | 49 | 149 | 0.9 | 3.5 | 0.00 | 0.02 | 0.00 | 51 | 1009.9 |
| 20260504043055 | 50 | 157 | 0.9 | 2.6 | 0.00 | 0.02 | 0.00 | 51 | 1009.9 |
| 20260504041552 | 50 | 163 | 0.0 | 2.6 | 0.00 | 0.02 | 0.00 | 49 | 1009.9 |
| 20260504040106 | 50 | 0 | 0.0 | 1.7 | 0.00 | 0.02 | 0.00 | 49 | 1009.9 |
| 20260504034607 | 50 | 163 | 0.0 | 1.7 | 0.00 | 0.02 | 0.02 | 53 | 1009.9 |
| 20260504033055 | 51 | 0 | 0.0 | 1.7 | 0.00 | 0.02 | 0.02 | 50 | 1010.1 |
| 20260504031550 | 51 | 0 | 0.0 | 1.7 | 0.00 | 0.02 | 0.02 | 49 | 1010.3 |
| 20260504030056 | 51 | 163 | 0.0 | 1.7 | 0.00 | 0.02 | 0.02 | 52 | 1010.3 |
| 20260504024550 | 50 | 163 | 0.0 | 1.7 | 0.00 | 0.02 | 0.02 | 53 | 1010.4 |
| 20260504023048 | 51 | 0 | 0.0 | 0.9 | 0.00 | 0.02 | 0.02 | 49 | 1010.3 |
| 20260504021553 | 52 | 0 | 0.0 | 2.6 | 0.00 | 0.02 | 0.02 | 48 | 1010.5 |
| 20260504020050 | 52 | 157 | 0.9 | 4.3 | 0.00 | 0.02 | 0.02 | 48 | 1010.4 |
| 20260504014554 | 52 | 203 | 0.9 | 5.2 | 0.00 | 0.02 | 0.02 | 48 | 1010.3 |
| 20260504013111 | 52 | 203 | 3.5 | 13.0 | 0.00 | 0.02 | 0.02 | 47 | 1010.4 |
| 20260504011552 | 53 | 225 | 1.7 | 9.6 | 0.00 | 0.02 | 0.02 | 46 | 1010.7 |
| 20260504010058 | 54 | 181 | 1.7 | 11.3 | 0.00 | 0.02 | 0.02 | 44 | 1010.3 |
| 20260504004607 | 53 | 184 | 3.5 | 13.9 | 0.00 | 0.02 | 0.02 | 45 | 1010.1 |
| 20260504003049 | 53 | 204 | 2.6 | 7.0 | 0.00 | 0.02 | 0.02 | 47 | 1010.3 |
| 20260504001552 | 53 | 240 | 4.3 | 10.4 | 0.00 | 0.02 | 0.02 | 47 | 1010.3 |
| 20260504000056 | 53 | 218 | 2.6 | 8.7 | 0.00 | 0.02 | 0.02 | 47 | 1010.2 |
| 20260503234552 | 53 | 226 | 2.6 | 10.4 | 0.00 | 0.02 | 0.02 | 46 | 1010.0 |
| 20260503233100 | 54 | 234 | 5.2 | 16.5 | 0.00 | 0.02 | 0.02 | 44 | 1010.0 |
| 20260503231553 | 54 | 234 | 0.9 | 5.2 | 0.00 | 0.02 | 0.02 | 45 | 1009.6 |
| 20260503230058 | 54 | 207 | 1.7 | 6.1 | 0.00 | 0.02 | 0.02 | 44 | 1009.4 |
| 20260503224557 | 55 | 252 | 0.9 | 7.8 | 0.00 | 0.02 | 0.02 | 44 | 1009.2 |
| 20260503223052 | 54 | 155 | 0.0 | 4.3 | 0.00 | 0.02 | 0.02 | 47 | 1009.4 |
| 20260503221550 | 54 | 175 | 0.9 | 6.1 | 0.00 | 0.02 | 0.02 | 45 | 1009.4 |
| 20260503220056 | 54 | 201 | 1.7 | 6.1 | 0.00 | 0.02 | 0.02 | 45 | 1009.5 |
| 20260503214550 | 54 | 233 | 1.7 | 7.0 | 0.00 | 0.02 | 0.02 | 45 | 1009.5 |
| 20260503213048 | 55 | 214 | 0.9 | 8.7 | 0.00 | 0.02 | 0.02 | 43 | 1009.5 |
| 20260503211549 | 55 | 210 | 1.7 | 7.0 | 0.00 | 0.02 | 0.02 | 45 | 1009.5 |
| 20260503210052 | 54 | 228 | 1.7 | 7.0 | 0.00 | 0.02 | 0.02 | 46 | 1009.6 |
| 20260503204551 | 53 | 226 | 1.7 | 7.8 | 0.00 | 0.02 | 0.02 | 46 | 1009.8 |
| 20260503203054 | 53 | 200 | 2.6 | 8.7 | 0.00 | 0.02 | 0.02 | 46 | 1009.9 |
| 20260503201550 | 52 | 159 | 2.6 | 12.2 | 0.00 | 0.02 | 0.02 | 47 | 1010.1 |
| 20260503200050 | 53 | 219 | 2.6 | 13.9 | 0.00 | 0.02 | 0.02 | 44 | 1010.0 |
| 20260503194551 | 53 | 206 | 2.6 | 11.3 | 0.00 | 0.02 | 0.02 | 45 | 1010.2 |
| 20260503193050 | 53 | 192 | 2.6 | 10.4 | 0.00 | 0.02 | 0.02 | 45 | 1010.5 |
| 20260503191553 | 53 | 252 | 0.9 | 5.2 | 0.00 | 0.02 | 0.02 | 43 | 1010.5 |
| 20260503190058 | 52 | 219 | 1.7 | 7.8 | 0.00 | 0.02 | 0.02 | 44 | 1010.4 |
| 20260503184605 | 52 | 228 | 0.9 | 7.8 | 0.00 | 0.02 | 0.02 | 44 | 1010.5 |
| 20260503183054 | 52 | 269 | 0.9 | 6.1 | 0.00 | 0.02 | 0.02 | 46 | 1010.7 |
| 20260503181601 | 52 | 221 | 2.6 | 8.7 | 0.00 | 0.02 | 0.02 | 44 | 1011.0 |
| 20260503180109 | 51 | 246 | 0.9 | 5.2 | 0.02 | 0.02 | 0.02 | 45 | 1011.0 |
| 20260503174559 | 52 | 0 | 1.7 | 5.2 | 0.02 | 0.02 | 0.02 | 43 | 1011.1 |
| 20260503173106 | 52 | 243 | 1.7 | 7.8 | 0.02 | 0.02 | 0.02 | 43 | 1011.2 |
| 20260503171550 | 51 | 269 | 0.0 | 7.0 | 0.02 | 0.02 | 0.02 | 46 | 1011.4 |
| 20260503160107 | 48 | 237 | 2.6 | 9.6 | 0.00 | 0.00 | 0.00 | 46 | 1012.7 |
| 20260503081553 | 36 | 0 | 0.0 | 1.7 | 0.00 | 0.00 | 0.00 | 77 | 1012.4 |
| 20260503071557 | 36 | 0 | 0.0 | 1.7 | 0.00 | 0.00 | 0.00 | 77 | 1012.3 |